Regional Weather Roundup
Issued by NWS

Home | Current Version | Previous Version | Text Only | Print | Product List | Glossary On
Versions: 1 2 3 4 5 6 7 8 9 10 11 12 13 14 15 16 17 18 19 20 21 22 23 24 25 26 27 28 29 30 31 32 33 34 35 36 37 38 39 40 41 42 43 44 45 46 47 48 49 50
000
ASUS45 KSLC 201110
RWRUT

UTAH REGIONAL WEATHER ROUNDUP
NATIONAL WEATHER SERVICE SALT LAKE CITY UT
500 AM MDT WED AUG 20 2014

UTZ001>011-023>025-201200-

NORTHERN UTAH

CITY           SKY/WX    TMP DP  RH WIND       PRES   REMARKS
HILL AFB       CLOUDY    65  55  71 S8        29.96R
LOGAN          PTCLDY    59  50  72 CALM      29.93R
OGDEN          CLOUDY    66  55  67 S6        29.94R
PROVO AIRPORT  CLOUDY    59  55  88 N5        29.99R
SALT LAKE CITY CLOUDY    62  58  86 SE14      29.95R
VERNAL         CLOUDY    60  57  89 CALM      30.00R
WENDOVER       MOCLDY    66  45  45 SE8       29.92R
HEBER CITY     RAIN      55  52  88 E5        30.03S
WEST JORDAN    CLOUDY    61  61 100 SE10      29.98R

$$

UTZ012>022-026-027-201200-

SOUTHERN UTAH

CITY           SKY/WX    TMP DP  RH WIND       PRES   REMARKS
BRYCE CANYON   CLEAR     45  44  97 N3        30.17R
CEDAR CITY     CLEAR     58  49  72 S5        30.05R
MILFORD        CLEAR     57  54  89 SE6       30.01R
MOAB/CYNLANDS  CLEAR     62  61  96 CALM      29.96S
PRICE          MOCLDY    59  56  89 E6        30.03F
ST GEORGE      CLOUDY    66  57  72 E6        29.93F
KANAB            N/A    N/A N/A N/A CALM      30.09S

$$

REGIONAL REPORTS     COLORADO/ARIZONA

CITY           SKY/WX    TMP DP  RH WIND       PRES   REMARKS
CRAIG, CO      CLOUDY    56  54  93 CALM      30.05R
GRAND JUNCTION CLOUDY    61  60  97 CALM      29.99S
RIFLE          CLOUDY    60  58  92 CALM      30.03R
MONTROSE       CLOUDY    62  58  86 N3        30.07R
CORTEZ         CLEAR     58  57  97 CALM      30.10R
PAGE, AZ       PTCLDY    66  59  78 S6        30.01R
GRAND CANYON     N/A    N/A N/A N/A MISG        N/A
KINGMAN        CLEAR     61  56  83 S6        29.96R
FLAGSTAFF      PTCLDY    48  46  93 CALM      30.22R

$$

REGIONAL REPORTS    NEVADA/IDAHO/WYOMING

CITY           SKY/WX    TMP DP  RH WIND       PRES   REMARKS
LAS VEGAS, NV  PTCLDY    78  55  44 S3        29.83R
ELY            CLOUDY    53  51  93 S9        30.08R
ELKO           PTCLDY    61  44  53 E3        29.96R
POCATELLO, ID  PTCLDY    54  53  97 NE6       29.92S
BURLEY         MOCLDY    57  52  83 N3        29.87S
EVANSTON, WY   CLOUDY    52  48  86 W3        30.07R
ROCK SPRINGS   MOCLDY    51  48  89 CALM      30.04R

$$


USA.gov is the U.S. government's official web portal to all federal, state and local government web resources and services.